Wind_Speed
12 12 12 12 11 12 14 14 12 12 11 10 10 10 9 8 8 8 7 7 8 7 6 5 5 5 4 4 3 3 3 2 2 2 2 1 1 2 2 2 2 2 3 2 2 2 2 1 2
11 12 11 11 12 13 14 14 12 13 12 10 9 9 9 8 8 8 7 7 8 7 7 6 5 5 4 3 2 2 2 2 2 2 1 1 1 2 2 2 2 2 2 1 1 1 1 1 1
11 12 12 11 12 14 14 14 13 13 12 10 9 9 9 8 8 8 7 7 8 7 7 7 6 5 5 4 2 1 2 1 1 2 1 1 2 2 1 1 1 1 2 1 2 1 1 1 1
11 11 11 12 13 14 14 14 14 13 12 11 10 9 8 8 9 9 8 8 8 8 7 7 6 6 5 5 3 2 2 2 2 2 1 2 2 2 1 1 1 2 2 2 2 1 2 2 1
11 10 11 12 13 14 15 15 14 13 12 11 10 9 8 9 10 10 9 9 9 8 8 8 7 6 6 6 5 4 4 3 3 2 2 2 2 2 2 1 2 2 3 3 2 2 2 2 1
10 10 12 13 13 14 15 14 12 12 12 11 10 9 9 9 10 10 9 9 9 8 8 8 7 7 7 6 6 5 3 3 3 2 2 1 1 1 2 2 3 3 3 3 2 3 2 2 2
8 11 11 13 14 14 13 13 12 12 11 11 10 10 9 9 9 10 9 8 8 8 7 7 7 7 7 6 5 4 3 2 2 1 1 1 1 1 1 1 2 3 3 3 2 3 2 2 2
8 10 10 11 13 13 12 12 12 11 11 11 12 11 10 10 10 10 9 8 8 8 7 7 6 6 6 6 5 3 2 1 1 1 1 2 1 1 1 2 2 2 3 2 2 3 2 2 2
8 9 9 9 11 11 11 11 11 10 11 11 11 11 11 11 11 10 9 8 8 8 7 6 5 5 5 5 5 3 2 1 1 1 1 1 2 2 1 2 2 2 2 2 2 2 2 2 3
8 8 8 9 10 9 10 10 10 10 10 11 11 11 11 11 10 10 9 8 8 8 7 6 6 5 5 4 4 4 4 3 1 1 1 2 2 2 2 2 2 2 2 2 2 2 3 3 3
7 7 8 10 9 8 9 9 10 9 10 10 10 10 10 9 9 9 10 9 8 7 7 7 6 6 6 5 4 4 4 4 3 2 2 2 2 2 1 1 1 1 1 2 2 3 3 3 3
6 5 7 8 8 8 8 8 9 9 10 10 10 9 9 9 8 9 10 9 8 8 7 6 6 6 6 5 5 5 5 4 3 3 3 2 2 2 2 2 2 2 2 2 2 3 3 3 3
6 6 6 7 7 8 8 9 9 9 10 9 9 8 9 9 9 10 9 9 8 8 7 6 6 6 6 6 5 5 5 4 3 3 3 3 3 2 2 3 2 3 3 3 3 3 3 3 4
6 5 6 6 5 6 7 8 8 9 9 9 8 8 9 9 9 10 9 9 9 8 7 7 6 5 5 5 5 4 4 4 4 4 4 3 3 3 3 3 2 2 3 4 4 3 3 3 4
5 5 4 5 5 5 6 6 7 8 8 8 9 9 10 10 10 10 10 10 10 9 9 8 7 6 5 4 4 4 4 5 5 5 4 4 3 3 3 2 3 2 3 3 4 3 3 3 4
6 6 5 5 5 4 4 6 6 7 7 7 8 8 8 10 10 9 10 10 10 10 10 8 7 6 5 4 5 4 5 5 5 5 4 4 3 3 3 3 3 3 3 2 3 3 4 4 5
5 6 6 4 3 3 3 5 5 5 6 7 7 8 7 8 8 9 9 9 9 9 9 9 8 7 5 5 4 4 5 5 5 4 4 3 3 3 3 2 3 3 3 3 3 4 5 6 6
5 5 5 3 2 1 1 4 4 4 6 6 7 7 7 7 7 7 7 8 8 9 9 9 8 7 6 5 5 5 5 4 4 4 4 4 3 2 3 2 3 3 3 3 3 4 5 7 7
6 4 3 3 1 2 1 2 3 4 5 6 6 7 7 7 7 7 8 8 8 8 9 9 8 7 6 5 5 6 5 5 5 4 4 3 3 3 3 3 3 3 3 3 4 4 5 6 6
6 5 4 3 2 2 2 3 3 3 5 5 5 6 6 6 7 7 7 9 8 8 9 9 8 7 6 6 5 5 5 5 4 4 4 3 4 4 4 4 3 4 4 4 4 5 6 6 6
7 6 6 5 5 5 5 4 4 4 5 6 4 5 6 5 6 6 7 7 8 8 9 9 8 6 6 5 5 4 4 4 4 4 3 3 4 4 4 4 4 4 4 5 5 6 7 7 7
9 8 8 7 7 8 8 8 6 7 6 5 6 6 6 7 8 7 7 7 8 8 8 8 7 7 6 5 5 5 4 4 4 4 3 3 4 5 5 5 5 5 5 6 6 7 7 8 8
11 10 9 9 9 10 10 10 7 8 7 6 7 7 7 8 8 8 7 7 8 8 8 8 7 7 6 6 5 5 4 4 4 4 4 4 4 5 5 5 5 6 6 7 8 8 8 9 9
14 13 12 12 12 13 10 10 8 7 8 7 7 8 8 9 9 8 8 8 8 8 8 8 8 7 7 7 6 5 5 5 5 5 4 5 5 5 5 5 5 6 7 7 8 8 9 9 9
16 16 15 15 14 12 10 12 11 9 8 9 9 9 9 9 9 8 8 8 8 8 8 8 8 8 8 7 6 6 5 6 5 5 5 6 6 6 6 6 6 7 7 8 8 9 10 10 11
15 16 15 15 14 13 13 14 12 11 9 9 10 11 9 8 9 9 9 9 8 8 9 8 8 8 8 8 7 7 6 6 7 6 6 6 6 6 7 7 8 8 9 9 10 11 12 12 13
16 15 15 16 16 15 14 12 13 12 11 10 11 10 9 9 10 10 11 9 9 8 8 9 9 9 9 9 8 8 7 7 7 7 6 6 7 7 7 8 9 10 11 12 12 13 14 14 14
17 15 16 16 15 15 14 13 13 12 11 11 11 11 11 11 11 11 10 10 8 8 8 8 9 9 9 9 9 8 8 9 9 9 8 8 8 9 10 10 10 11 12 13 14 14 14 15 15
18 18 18 17 17 17 16 14 13 14 13 12 11 11 12 12 12 11 11 12 10 8 9 9 10 10 10 10 10 10 10 10 10 10 11 10 11 11 11 11 12 13 13 14 15 15 16 16 16
19 19 19 18 17 18 19 16 15 16 16 14 13 13 13 12 13 13 13 14 11 10 11 11 11 11 12 11 11 12 12 12 12 12 12 12 13 13 13 13 14 15 15 16 16 16 17 17 18
Wind_Direction
94 90 84 81 77 69 65 69 70 66 64 65 68 68 68 69 69 67 62 62 66 66 67 68 69 83 84 95 108 110 108 106 106 111 117 114 134 126 104 81 70 63 59 59 65 67 78 71 70
95 88 84 80 73 67 66 69 67 68 68 67 66 64 64 66 63 60 59 60 64 66 67 67 66 70 78 82 93 106 119 124 124 135 150 141 129 136 110 85 55 35 22 16 17 28 45 47 60
94 83 81 75 68 65 65 69 65 67 68 67 62 60 58 60 57 52 55 62 65 67 69 70 72 71 74 68 68 104 148 147 129 121 118 121 114 119 99 78 25 357 359 4 359 19 350 352 33
89 84 84 73 68 64 62 64 62 61 65 63 58 54 53 56 57 55 57 68 71 69 70 70 76 76 71 60 61 96 118 125 120 126 101 95 102 100 79 30 8 3 13 12 1 12 351 336 342
90 84 83 76 66 61 61 63 57 56 57 56 53 52 49 56 60 62 63 71 75 71 68 71 73 70 64 60 65 94 102 103 99 100 99 93 93 80 68 42 13 10 11 13 360 353 350 358 346
90 86 75 73 67 63 61 63 60 56 50 49 51 52 56 65 67 67 66 70 73 71 69 71 70 67 62 62 67 80 82 85 83 76 73 75 75 72 61 38 17 11 5 9 1 353 340 336 330
85 81 70 64 62 66 64 61 57 50 46 45 51 55 57 68 70 71 71 70 68 68 69 69 68 65 61 59 66 69 65 71 75 59 27 6 18 41 28 4 3 1 1 5 3 356 351 330 323
91 90 76 64 61 66 64 58 51 45 45 48 50 53 59 67 70 69 71 70 61 59 61 59 56 56 58 54 55 62 66 64 50 22 348 329 302 306 322 335 340 349 357 0 4 7 343 321 327
96 86 77 72 65 58 60 56 51 43 41 43 47 52 58 66 68 67 68 68 62 57 53 52 46 48 50 51 50 48 42 26 358 335 334 321 316 292 293 318 328 336 347 355 350 347 345 335 329
98 87 79 76 67 53 56 50 48 45 41 43 48 50 57 64 65 62 63 62 59 53 48 46 39 42 50 50 46 40 29 23 17 20 14 339 323 297 281 308 322 330 336 341 346 351 351 337 326
99 91 80 78 68 55 54 52 49 47 43 45 53 53 55 58 61 55 53 52 51 47 41 43 36 42 48 43 41 37 32 34 35 28 9 337 311 302 308 342 326 320 320 323 334 343 336 341 335
108 96 85 78 74 65 51 52 51 52 47 50 54 53 49 51 58 54 49 45 43 38 36 38 34 38 39 35 36 33 33 30 27 21 12 348 322 326 324 356 7 355 341 322 318 332 333 334 331
115 108 94 76 66 62 53 45 50 51 49 53 49 45 43 47 47 45 43 41 36 33 30 31 32 25 23 21 22 19 18 20 18 16 5 358 1 1 343 344 326 338 335 324 315 309 318 312 310
133 110 111 91 76 63 52 50 55 55 54 54 48 41 41 41 44 45 39 35 31 29 26 22 24 20 14 14 10 8 11 17 9 359 357 2 6 359 351 339 345 352 339 320 311 304 318 316 318
135 114 114 101 99 82 61 49 53 52 47 48 42 41 42 42 41 38 32 27 26 25 23 18 21 20 15 9 4 2 12 4 359 350 347 351 357 356 349 334 340 341 336 343 346 342 341 334 327
138 121 123 112 102 84 63 48 40 45 46 42 37 38 40 39 37 36 31 26 25 22 20 18 13 7 4 359 353 0 352 348 349 341 343 351 349 347 342 338 342 338 323 325 332 334 333 329 319
151 137 128 115 107 93 58 51 28 31 41 35 29 31 31 29 28 29 27 23 18 15 13 12 9 2 353 344 347 351 351 347 345 336 332 335 344 348 341 336 334 328 320 313 311 319 324 319 316
171 147 152 146 134 136 35 22 9 16 32 28 18 19 23 19 17 17 16 14 10 9 7 7 4 3 356 339 334 343 343 343 336 331 328 326 328 330 331 317 327 333 333 324 319 323 326 322 318
191 189 192 186 165 197 237 340 352 360 15 28 20 15 15 15 11 9 8 4 4 4 1 0 359 355 356 349 338 337 332 329 325 324 321 324 323 319 325 316 326 336 338 334 333 330 329 325 322
215 225 240 232 244 281 301 310 312 317 344 356 11 14 9 9 6 360 359 0 1 358 354 353 352 347 346 345 343 345 339 335 326 323 310 309 307 307 321 328 331 324 327 323 323 325 325 322 319
225 233 246 260 254 279 291 286 288 306 322 333 346 1 358 352 356 352 347 357 357 352 347 349 347 338 335 337 342 344 333 329 329 317 302 296 302 303 303 315 315 312 314 314 324 330 324 317 311
225 223 248 266 269 275 284 277 280 295 298 308 320 332 342 343 348 341 338 342 350 347 343 340 341 340 340 338 335 335 329 323 320 314 301 286 297 298 293 300 297 303 309 314 319 321 320 317 314
227 229 245 255 262 270 270 274 282 285 280 297 306 315 323 328 331 333 336 339 340 338 334 330 330 330 330 334 335 332 331 329 323 313 304 297 300 294 291 289 287 299 304 306 308 309 311 313 313
228 233 236 243 250 258 264 265 273 277 276 284 299 306 316 320 318 319 325 331 332 332 328 327 327 322 324 321 319 321 323 316 313 301 292 288 285 285 287 288 287 296 298 299 300 303 307 312 314
226 232 236 240 244 247 252 258 265 273 270 284 292 298 302 309 307 312 313 316 322 323 322 320 322 317 319 316 311 314 318 314 304 288 283 278 275 281 286 289 287 296 297 296 298 301 304 308 312
231 239 243 246 244 241 247 257 263 271 270 276 284 290 288 300 304 309 315 308 309 310 312 312 314 313 312 314 312 309 309 312 312 301 289 286 289 288 287 288 287 294 298 299 299 300 303 305 309
235 241 243 249 250 247 251 260 265 266 266 277 287 291 292 301 302 304 309 305 305 305 306 308 304 308 311 311 307 302 297 297 303 302 297 293 294 290 287 292 294 294 295 297 301 304 304 304 307
236 243 243 246 251 254 253 260 273 273 274 279 288 291 290 291 300 308 311 312 313 307 313 312 308 307 306 303 298 294 293 290 291 292 292 291 292 290 288 291 294 297 297 297 299 302 303 303 305
235 241 245 250 252 255 258 260 270 276 273 280 289 291 289 286 294 298 303 309 313 312 311 312 308 306 304 301 297 291 290 291 290 289 291 290 287 287 287 289 292 294 296 297 298 299 301 301 302
235 241 243 246 250 256 260 260 270 274 271 275 282 283 282 288 295 299 299 300 298 300 305 307 305 302 300 296 292 288 285 286 285 282 283 284 285 286 286 288 290 292 293 295 297 298 299 299 298
Height
5906 5905 5905 5906 5906 5905 5903 5903 5902 5903 5903 5902 5902 5902 5903 5903 5903 5904 5901 5898 5898 5898 5897 5898 5897 5897 5898 5898 5898 5899 5899 5900 5900 5901 5902 5902 5902 5902 5902 5902 5902 5902 5902 5902 5901 5900 5900 5900 5899
5907 5907 5907 5908 5906 5905 5905 5904 5904 5904 5904 5904 5904 5903 5903 5903 5903 5902 5900 5899 5899 5898 5898 5898 5898 5898 5898 5898 5898 5899 5899 5900 5901 5902 5902 5902 5902 5903 5903 5903 5903 5902 5902 5902 5901 5901 5900 5900 5899
5908 5908 5910 5909 5907 5906 5906 5906 5906 5905 5905 5905 5905 5905 5904 5904 5903 5902 5900 5899 5899 5899 5899 5899 5899 5898 5898 5898 5897 5898 5899 5900 5901 5902 5902 5902 5903 5903 5903 5903 5903 5903 5902 5902 5901 5900 5900 5899 5899
5910 5911 5911 5911 5908 5908 5908 5907 5907 5907 5907 5906 5906 5906 5905 5904 5903 5902 5901 5900 5900 5900 5900 5900 5900 5899 5898 5897 5895 5895 5898 5900 5900 5902 5902 5903 5903 5903 5903 5903 5903 5903 5902 5901 5901 5901 5900 5899 5899
5911 5912 5912 5911 5910 5910 5909 5909 5909 5908 5908 5907 5907 5906 5906 5905 5904 5903 5902 5901 5901 5901 5901 5901 5901 5900 5899 5897 5894 5894 5897 5900 5901 5902 5902 5903 5903 5903 5903 5903 5903 5903 5902 5902 5901 5901 5900 5899 5899
5914 5913 5913 5912 5911 5911 5911 5911 5911 5910 5910 5909 5908 5907 5906 5906 5905 5904 5904 5903 5903 5903 5903 5903 5902 5901 5900 5899 5897 5897 5899 5900 5901 5902 5902 5903 5903 5903 5903 5903 5903 5903 5902 5902 5901 5901 5900 5900 5899
5915 5914 5914 5914 5913 5913 5913 5913 5912 5912 5911 5910 5909 5907 5907 5906 5906 5906 5906 5905 5905 5905 5904 5904 5903 5903 5902 5901 5900 5900 5900 5901 5902 5902 5902 5903 5903 5903 5903 5903 5902 5902 5902 5902 5901 5901 5900 5899 5899
5915 5916 5915 5915 5915 5914 5915 5914 5913 5913 5912 5911 5910 5908 5907 5907 5907 5907 5907 5906 5906 5905 5905 5905 5904 5904 5903 5903 5902 5902 5902 5902 5902 5902 5902 5902 5902 5902 5903 5902 5902 5902 5901 5901 5901 5901 5900 5899 5898
5916 5917 5916 5916 5916 5916 5916 5915 5915 5914 5913 5912 5911 5910 5909 5909 5908 5908 5908 5907 5907 5906 5906 5906 5905 5905 5904 5903 5903 5903 5902 5902 5902 5902 5902 5902 5902 5902 5902 5902 5902 5901 5901 5901 5901 5900 5899 5898 5898
5916 5917 5917 5917 5918 5918 5917 5917 5916 5915 5914 5913 5912 5912 5911 5911 5910 5910 5909 5909 5908 5908 5907 5907 5906 5905 5905 5904 5904 5903 5903 5902 5902 5901 5901 5901 5901 5901 5901 5901 5901 5901 5900 5900 5900 5900 5899 5898 5898
5917 5918 5918 5918 5919 5919 5918 5918 5917 5916 5916 5915 5915 5914 5913 5912 5912 5911 5910 5909 5909 5909 5908 5908 5907 5906 5905 5905 5904 5904 5903 5903 5902 5901 5901 5901 5900 5901 5901 5901 5900 5900 5900 5900 5899 5899 5898 5898 5897
5919 5919 5919 5919 5919 5919 5919 5919 5919 5918 5918 5917 5916 5915 5914 5913 5913 5912 5911 5910 5910 5910 5909 5908 5907 5906 5905 5905 5904 5904 5903 5903 5902 5902 5901 5900 5900 5900 5899 5900 5900 5900 5900 5899 5899 5898 5898 5898 5897
5919 5919 5919 5919 5920 5920 5920 5919 5920 5919 5918 5917 5917 5916 5916 5914 5914 5913 5912 5911 5910 5910 5909 5908 5907 5906 5905 5905 5904 5904 5903 5903 5902 5901 5901 5900 5899 5899 5899 5899 5900 5899 5899 5899 5898 5898 5897 5897 5896
5920 5920 5920 5920 5921 5920 5921 5921 5921 5920 5919 5919 5918 5917 5916 5915 5914 5913 5913 5912 5911 5910 5909 5907 5907 5906 5906 5905 5904 5903 5903 5902 5902 5901 5900 5899 5899 5899 5899 5899 5899 5899 5898 5898 5897 5897 5897 5896 5895
5920 5921 5921 5921 5922 5921 5922 5922 5921 5920 5920 5920 5919 5918 5917 5916 5915 5914 5913 5912 5911 5910 5909 5908 5907 5906 5905 5905 5904 5903 5903 5902 5901 5900 5900 5899 5899 5899 5898 5898 5898 5897 5897 5897 5897 5896 5895 5895 5894
5921 5921 5921 5922 5922 5922 5923 5923 5922 5921 5920 5920 5920 5919 5918 5917 5916 5915 5914 5913 5911 5910 5909 5908 5907 5906 5905 5904 5904 5903 5902 5901 5901 5900 5899 5899 5898 5898 5898 5897 5897 5896 5896 5896 5896 5895 5895 5894 5893
5920 5920 5920 5921 5921 5921 5922 5922 5922 5921 5921 5920 5920 5919 5919 5918 5917 5916 5915 5913 5912 5911 5909 5908 5907 5905 5905 5904 5903 5902 5901 5901 5900 5899 5898 5898 5898 5897 5897 5896 5896 5895 5895 5895 5894 5894 5893 5893 5891
5920 5920 5920 5920 5920 5921 5921 5922 5922 5922 5921 5920 5920 5920 5919 5918 5917 5916 5915 5914 5913 5911 5910 5908 5906 5905 5904 5903 5902 5902 5901 5900 5899 5898 5897 5897 5897 5896 5896 5895 5895 5894 5894 5894 5893 5892 5892 5891 5889
5918 5919 5919 5919 5920 5920 5920 5921 5922 5921 5921 5920 5920 5920 5919 5918 5917 5916 5914 5913 5912 5911 5909 5908 5906 5905 5904 5903 5902 5901 5900 5899 5898 5897 5896 5896 5896 5895 5895 5894 5894 5894 5893 5893 5892 5891 5890 5889 5888
5916 5917 5917 5918 5919 5919 5919 5920 5920 5920 5920 5920 5920 5920 5919 5918 5916 5915 5914 5913 5912 5911 5909 5907 5906 5904 5903 5902 5901 5900 5899 5898 5897 5897 5896 5895 5895 5895 5894 5893 5893 5892 5892 5892 5891 5890 5889 5888 5886
5914 5916 5916 5917 5918 5918 5919 5919 5919 5919 5919 5919 5919 5919 5918 5916 5915 5914 5913 5912 5911 5910 5909 5907 5905 5904 5902 5901 5900 5899 5898 5897 5897 5896 5895 5894 5894 5894 5893 5892 5892 5891 5891 5890 5889 5888 5887 5886 5885
5913 5915 5915 5916 5917 5917 5918 5917 5918 5918 5918 5918 5917 5917 5917 5915 5914 5913 5912 5911 5910 5909 5908 5906 5904 5903 5901 5900 5899 5898 5897 5896 5896 5895 5894 5893 5893 5892 5892 5891 5890 5889 5889 5888 5887 5886 5885 5884 5883
5911 5912 5913 5914 5914 5915 5915 5916 5916 5916 5916 5916 5915 5915 5915 5914 5913 5912 5911 5910 5908 5907 5906 5905 5903 5902 5901 5899 5898 5897 5896 5895 5894 5893 5893 5892 5891 5891 5890 5889 5889 5888 5887 5886 5885 5884 5883 5882 5881
5908 5910 5910 5911 5912 5913 5913 5913 5914 5914 5914 5914 5913 5913 5913 5912 5911 5910 5909 5908 5907 5906 5905 5903 5902 5900 5899 5898 5897 5895 5894 5893 5893 5892 5891 5890 5889 5889 5888 5887 5887 5886 5885 5884 5884 5882 5881 5880 5879
5905 5907 5908 5908 5909 5910 5910 5910 5911 5910 5911 5911 5910 5910 5910 5909 5908 5907 5906 5905 5904 5904 5903 5901 5900 5898 5897 5896 5895 5894 5893 5892 5891 5890 5889 5888 5887 5887 5887 5886 5885 5884 5883 5882 5881 5880 5879 5877 5876
5902 5903 5905 5906 5906 5906 5906 5906 5907 5907 5907 5907 5907 5907 5906 5906 5906 5904 5903 5903 5902 5901 5900 5899 5898 5896 5895 5894 5893 5892 5892 5890 5889 5888 5887 5887 5886 5885 5885 5884 5883 5882 5881 5880 5879 5878 5876 5875 5873
5898 5899 5901 5902 5902 5902 5902 5903 5904 5903 5904 5904 5904 5903 5903 5903 5902 5901 5900 5900 5899 5898 5897 5896 5895 5894 5893 5892 5891 5890 5889 5889 5887 5886 5886 5885 5884 5884 5882 5882 5881 5880 5879 5877 5876 5875 5873 5872 5870
5894 5895 5897 5898 5898 5898 5899 5900 5900 5899 5900 5901 5900 5900 5900 5900 5899 5898 5897 5896 5895 5894 5894 5893 5893 5891 5890 5889 5888 5887 5887 5886 5885 5884 5884 5883 5882 5881 5880 5879 5878 5877 5876 5875 5873 5872 5870 5868 5866
5890 5891 5892 5893 5894 5894 5895 5898 5897 5897 5897 5897 5896 5896 5896 5896 5896 5896 5895 5894 5893 5892 5891 5891 5890 5889 5888 5886 5885 5885 5884 5883 5882 5882 5881 5880 5879 5878 5877 5876 5875 5874 5873 5871 5870 5868 5866 5864 5862
5885 5887 5888 5890 5890 5890 5890 5895 5893 5892 5891 5892 5892 5892 5892 5892 5892 5892 5891 5890 5890 5889 5888 5887 5886 5886 5885 5883 5882 5881 5881 5880 5879 5878 5877 5877 5876 5875 5874 5873 5871 5870 5869 5867 5866 5864 5862 5860 5858